Orbital Elements at Epoch 2459200.5 (2020-Dec-17.0) TDB
Reference: JPL 15 (heliocentric ecliptic J2000)
Element | Value | Uncertainty (1-sigma) | Units |
e | .2015845654264074 | 4.7772e-08 | |
a | 2.430924912997599 | 1.2216e-08 | au |
q | 1.940887970826751 | 1.1886e-07 | au |
i | 6.140233795077 | 4.248e-06 | deg |
node | 318.2436656549585 | 5.8676e-05 | deg |
peri | 132.8929390774574 | 6.0474e-05 | deg |
M | 186.9715937063519 | 1.7309e-05 | deg |
tp | 2459865.881390755057 (2022-Oct-13.38139076) | 7.0005e-05 | TDB |
period | 1384.38136143553 3.79 | 1.0435e-05 2.857e-08 | d yr |
n | .2600439517812485 | 1.9602e-09 | deg/d |
Q | 2.920961855168448 | 1.4678e-08 | au |
|
| | Orbit Determination Parameters
Additional Information
|